User: anonymous
Location: Sunrise Point
(46.9200°N, 121.5900°W)
Time: 07:23:41
(UTC-07:00)
Language:

Cosmos 2058 - Orbit

View from above orbital plane
View from above orbital plane
View from above satellite
View from above satellite

Ground track
Ground track

The orbit data is extracted from the following two-line orbital elements,

1 20465U 90010A   14265.12024851  .00001447  00000-0  12938-3 0  2285
2 20465 082.4898 127.2722 0017606 059.7647 300.5314 14.95076720335894
Epoch (UTC): 22 September 2014 02:53:09
Eccentricity: 0.0017606
inclination: 82.4898°
perigee height: 570 km
apogee height: 594 km
right ascension of ascending node: 127.2722°
argument of perigee: 59.7647°
revolutions per day: 14.95076720
mean anomaly at epoch: 300.5314°
orbit number at epoch: 33589

The dashed part of the orbit path shows where the satellite is in the earth's shadow,  

DLR